Home > Time Zones > World Clock > Weather > China > Wuhan > Past weeks

Flag for China Weather past 2 weeks in Wuhan, Hubei, China

Now
41 °F

Fog.


Feels Like: 39 °F
Forecast: 41 / 47 °F
Wind: 3 mph from Northeast

Location: Wuhan Airport

Current Time: Jan 26, 2015 at 9:23:19 AM

Latest Report: Jan 26, 2015 at 8:00 AM


Visibility: 1 mi

Pressure: 30.24 "Hg

Humidity: 81%

Dew point: 36 °F

Location of WuhanLocation

Historic Weather in Wuhan — Graph

°F

Wuhan temperature yesterday

Maximum temperature yesterday: 48 °F (at 3:00 PM)
Minimum temperature yesterday: 41 °F (at 5:00 AM)
Average temperature yesterday: 44 °F

Past Weeks' High & Low Weather Summary

 TemperatureHumidityPressure
High61 °F (Jan 24, 1:00 PM)100% (Jan 15, 12:00 AM)30.54 "Hg (Jan 15, 12:00 AM)
Low32 °F (Jan 22, 5:00 AM)18% (Jan 21, 4:00 PM)29.98 "Hg (Jan 24, 5:00 AM)
Average46 °F63%30.29 "Hg
* Reported Jan 11 8:00 AM — Jan 26 8:00 AM, Wuhan, Weather by CustomWeather, © 2014

Note: Actual official high and low records may vary slightly from our data, if they occured in-between our weather recording intervals... More about our weather records

Advertising

Wuhan weather history for previous 24 hours

 ConditionsComfort  
Time TempWeatherWind HumidityBarometerVisibility
8:00 AM
Jan 26
41 °FFog.3 mph81%30.24 "Hg1 mi
7:00 AM41 °FFog.3 mph87%30.21 "Hg1 mi
6:00 AM41 °FFog.1 mph81%30.21 "Hg1 mi
5:00 AM41 °FFog.3 mph81%30.21 "Hg1 mi
4:00 AM41 °FFog.6 mph81%30.24 "Hg1 mi
3:00 AM41 °FFog.8 mph81%30.24 "Hg1 mi
2:00 AM41 °FFog.3 mph81%30.24 "Hg1 mi
1:00 AM43 °FFog.1 mph76%30.24 "Hg1 mi
12:00 AM41 °FFog.1 mph81%30.27 "Hg1 mi
11:00 PM
Jan 25
43 °FFog.No wind76%30.27 "Hg1 mi
10:00 PM43 °FFog.3 mph76%30.27 "Hg1 mi
9:00 PM43 °FFog.3 mph76%30.27 "Hg1 mi
8:00 PM43 °FFog.10 mph81%30.24 "Hg1 mi
7:00 PM45 °FFog.13 mph71%30.24 "Hg1 mi
6:00 PM45 °FHaze.8 mph76%30.21 "Hg1 mi
5:00 PM48 °FScattered clouds.8 mph71%30.21 "Hg1 mi
4:00 PM48 °FScattered clouds.6 mph71%30.18 "Hg1 mi
3:00 PM48 °FHaze.3 mph71%30.18 "Hg1 mi
2:00 PM46 °FFog.3 mph76%30.18 "Hg1 mi
1:00 PM46 °FFog.3 mph76%30.21 "Hg1 mi
12:00 PM45 °FFog.3 mph81%30.24 "Hg1 mi
11:00 AM45 °FFog.3 mph81%30.24 "Hg1 mi
10:00 AM43 °FFog.8 mph81%30.24 "Hg1 mi
9:00 AM41 °FFog.8 mph87%30.24 "Hg1 mi
Weather by CustomWeather, © 2014

See weather overviewHow to use our weather pages